N7DTY Weather Reports


time (UTC)temp
F
wind
direction
speed
knots
gust
knots
rain 1hr
in
rain 24hr
in
rain mn
in
humidity
%
barometer
mb
20260904213013 68 128 0.9 6.1 0.00 0.00 0.00 62 1013.9
20260904211509 65 186 1.7 4.3 0.00 0.00 0.00 69 1013.9
20260904210008 66 179 0.9 4.3 0.00 0.00 0.00 69 1013.9
20260904204509 68 319 0.0 3.5 0.00 0.00 0.00 66 1013.9
20260904203007 65 259 1.7 4.3 0.00 0.00 0.00 70 1013.8
20260904201503 64 154 2.6 6.1 0.00 0.00 0.00 73 1013.7
20260904200004 63 185 0.9 6.1 0.00 0.00 0.00 72 1013.7
20260904194609 65 242 0.0 6.1 0.00 0.00 0.00 74 1013.8
20260904193100 62 171 1.7 6.1 0.00 0.00 0.00 75 1013.9
20260904191559 63 177 0.9 3.5 0.00 0.00 0.00 77 1013.7
20260904190059 61 182 0.0 3.5 0.00 0.00 0.00 78 1013.7
20260904184557 64 259 1.7 3.5 0.00 0.00 0.00 74 1013.7
20260904183111 63 186 0.0 4.3 0.00 0.00 0.00 77 1013.7
20260904181553 62 160 0.0 4.3 0.00 0.00 0.00 78 1013.5
20260904180051 62 40 0.0 5.2 0.00 0.00 0.00 80 1013.5
20260904174548 60 173 0.9 6.1 0.00 0.00 0.00 81 1013.6
20260904173045 59 296 0.9 7.0 0.00 0.00 0.00 84 1013.6
20260904171543 58 174 0.9 4.3 0.00 0.00 0.00 85 1013.5
20260904170039 57 95 1.7 4.3 0.00 0.00 0.00 86 1013.6
20260904164536 57 157 0.9 2.6 0.00 0.00 0.00 87 1013.4
20260904163034 57 175 1.7 4.3 0.00 0.00 0.00 88 1013.4
20260904161531 56 125 0.0 1.7 0.00 0.00 0.00 90 1013.3
20260904160027 56 125 0.9 2.6 0.00 0.00 0.00 90 1013.3
20260904154525 55 125 0.0 0.9 0.00 0.00 0.00 91 1013.2
20260904153023 54 125 0.0 0.0 0.00 0.00 0.00 92 1013.2
20260904151521 54 125 0.0 0.0 0.00 0.00 0.00 92 1013.0
20260904150025 53 125 0.0 0.0 0.00 0.00 0.00 92 1012.9
20260904144513 53 125 0.0 0.0 0.00 0.00 0.00 92 1012.6
20260904143011 52 125 0.0 0.0 0.00 0.00 0.00 92 1012.5
20260904141507 52 125 0.0 0.0 0.00 0.00 0.00 92 1012.3
20260904140005 52 125 0.0 0.0 0.00 0.00 0.00 92 1012.1
20260904134504 52 125 0.0 0.0 0.00 0.00 0.00 92 1011.9
20260904133002 52 125 0.0 0.0 0.00 0.00 0.00 91 1011.9
20260904131503 52 125 0.0 0.0 0.00 0.00 0.00 92 1011.7
20260904130107 52 125 0.0 0.0 0.00 0.00 0.00 92 1011.8
20260904124607 52 125 0.0 0.9 0.00 0.00 0.00 92 1011.8
20260904123058 52 125 0.0 0.0 0.00 0.00 0.00 92 1011.7
20260904121557 52 125 0.0 0.0 0.00 0.00 0.00 92 1011.4
20260904120108 52 125 0.0 0.0 0.00 0.00 0.00 92 1011.3
20260904114552 52 125 0.0 0.0 0.00 0.00 0.00 92 1011.0
20260904113051 52 125 0.0 0.9 0.00 0.00 0.00 92 1011.0
20260904111551 52 121 0.0 0.0 0.00 0.00 0.00 92 1010.9
20260904110053 52 121 0.0 0.0 0.00 0.00 0.00 92 1010.8
20260904104549 51 121 0.0 0.0 0.00 0.00 0.00 92 1010.9
20260904103048 51 121 0.0 0.0 0.00 0.00 0.00 92 1010.7
20260904101547 51 121 0.0 0.0 0.00 0.00 0.00 92 1010.5
20260904100049 50 121 0.0 0.0 0.00 0.00 0.00 92 1010.6
20260904094546 50 121 0.0 0.0 0.00 0.00 0.00 92 1010.8
20260904093046 50 121 0.0 0.0 0.00 0.00 0.00 91 1010.6
20260904091545 50 121 0.0 0.0 0.00 0.00 0.00 91 1010.6
20260904090043 50 121 0.0 0.0 0.00 0.00 0.00 90 1010.7
20260904084542 51 121 0.0 0.0 0.00 0.00 0.00 90 1010.6
20260904083041 51 121 0.0 0.0 0.00 0.00 0.00 90 1010.6
20260904081548 51 121 0.0 0.0 0.00 0.00 0.00 89 1010.5
20260904080040 51 121 0.0 0.0 0.00 0.00 0.00 89 1010.7
20260904074539 52 121 0.0 0.0 0.00 0.00 0.00 89 1010.6
20260904073035 52 121 0.0 0.0 0.00 0.00 0.00 88 1010.6
20260904071533 52 121 0.0 0.0 0.00 0.00 0.00 88 1010.5
20260904070031 52 121 0.0 0.0 0.00 0.00 0.00 88 1010.4
20260904064528 53 121 0.0 0.0 0.00 0.00 0.00 87 1010.3
20260904063028 53 121 0.0 0.0 0.00 0.00 0.00 87 1010.5
20260904061539 53 121 0.0 0.0 0.00 0.00 0.00 86 1010.5
20260904060026 53 121 0.0 0.0 0.00 0.00 0.00 85 1010.5
20260904054524 53 121 0.0 0.0 0.00 0.00 0.00 84 1010.4
20260904053022 53 121 0.0 0.0 0.00 0.00 0.00 83 1010.4
20260904051522 54 121 0.0 0.0 0.00 0.00 0.00 82 1010.3
20260904050021 54 121 0.0 0.0 0.00 0.00 0.00 81 1010.3
20260904044527 54 121 0.0 0.0 0.00 0.00 0.00 80 1010.2
20260904043020 55 121 0.0 0.0 0.00 0.00 0.00 79 1010.2
20260904041512 55 121 0.0 0.0 0.00 0.00 0.00 78 1010.2
20260904040011 56 121 0.0 0.0 0.00 0.00 0.00 77 1010.1
20260904034508 56 121 0.0 0.0 0.00 0.00 0.00 77 1010.0
20260904033006 57 121 0.0 0.0 0.00 0.00 0.00 76 1009.9
20260904031506 58 121 0.0 0.9 0.00 0.00 0.00 74 1009.8
20260904030015 59 121 0.0 0.9 0.00 0.00 0.00 74 1009.8
20260904024505 59 121 0.0 1.7 0.00 0.00 0.00 73 1009.7
20260904023004 60 121 0.0 0.0 0.00 0.00 0.00 71 1009.7
20260904021508 61 121 0.0 0.0 0.00 0.00 0.00 71 1009.5
20260904020004 61 122 0.0 0.9 0.00 0.00 0.00 70 1009.5
20260904014505 62 122 0.0 1.7 0.00 0.01 0.00 70 1009.4
20260904013003 63 11 0.0 1.7 0.00 0.01 0.00 69 1009.4
20260904011503 63 171 0.0 1.7 0.00 0.01 0.00 67 1009.2
20260904010002 63 281 0.0 1.7 0.00 0.01 0.00 67 1009.3
20260904004502 64 190 0.9 5.2 0.00 0.02 0.00 66 1009.2
20260904003002 65 111 0.0 2.6 0.00 0.02 0.00 65 1009.2
20260904000100 65 273 0.9 4.3 0.00 0.02 0.00 62 1009.2
20260903234600 65 149 0.0 5.2 0.00 0.02 0.00 64 1009.2
20260903233059 65 178 1.7 6.1 0.00 0.02 0.00 62 1009.4
20260903231606 65 176 1.7 4.3 0.00 0.02 0.00 61 1009.4
20260903230100 67 172 1.7 4.3 0.00 0.02 0.00 60 1009.4
20260903224556 67 196 0.9 3.5 0.00 0.02 0.00 58 1009.4
20260903223058 67 170 0.9 3.5 0.00 0.02 0.00 58 1009.5
20260903221557 65 167 0.0 3.5 0.00 0.02 0.00 61 1009.6
20260903220117 65 186 0.0 2.6 0.00 0.02 0.00 60 1009.8
20260903214550 65 143 0.0 1.7 0.00 0.02 0.00 62 1009.9